Location: Boda
(47.1872°N, 9.5454°E)
Time: 08:47:59
(UTC+00:00)

Cosmos 1975 Rocket - Pass Details

Date: 14 May 2021
Orbit: 604 x 633 km, 82.5° (Epoch: 17 June)

Event Time Altitude Azimuth Distance (km) Brightness Sun altitude
Exits shadow 00:39:57 37° 133° (SE) 960 3.8 -21.7°
Maximum altitude 00:41:02 45° 93° (E) 837 3.8 -21.6°
Drops below altitude 10° 00:45:11 10° 21° (NNE) 1,967 6.8 -21.3°
Sets 00:47:28 0° 15° (NNE) 2,874 8.0 -21.2°
